Time,TemperatureF,DewpointF,PressureIn,WindDirection,WindDirectionDegrees,WindSpeedMPH,WindSpeedGustMPH,Humidity,HourlyPrecipIn,Conditions,Clouds,dailyrainin,SoftwareType,DateUTC
2013-10-04 00:43:00,82.8,78.0,29.84,East,94,7.0,11.0,85,0.00,,,0.00,weatherlink.com 1.10,2013-10-04 04:43:00,
2013-10-04 00:58:00,82.9,78.0,29.83,ESE,107,3.0,11.0,85,0.00,,,0.00,weatherlink.com 1.10,2013-10-04 04:58:00,
2013-10-04 01:13:00,82.7,78.0,29.83,ENE,76,8.0,12.0,85,0.00,,,0.00,weatherlink.com 1.10,2013-10-04 05:13:00,
2013-10-04 01:28:00,82.8,78.0,29.83,SSE,157,8.0,11.0,85,0.00,,,0.00,weatherlink.com 1.10,2013-10-04 05:28:00,
2013-10-04 01:43:00,82.8,78.0,29.83,East,89,6.0,11.0,84,0.00,,,0.00,weatherlink.com 1.10,2013-10-04 05:43:00,
2013-10-04 01:58:00,82.7,78.0,29.83,ESE,115,7.0,10.0,85,0.00,,,0.00,weatherlink.com 1.10,2013-10-04 05:58:00,
2013-10-04 02:13:00,82.7,78.0,29.83,ESE,115,2.0,11.0,84,0.00,,,0.00,weatherlink.com 1.10,2013-10-04 06:13:00,
2013-10-04 02:28:00,82.5,77.0,29.82,ESE,121,7.0,10.0,84,0.00,,,0.00,weatherlink.com 1.10,2013-10-04 06:28:00,
2013-10-04 02:43:00,82.5,78.0,29.82,ESE,122,3.0,9.0,85,0.00,,,0.00,weatherlink.com 1.10,2013-10-04 06:43:00,
2013-10-04 02:58:00,82.4,77.0,29.81,ESE,118,3.0,11.0,84,0.00,,,0.00,weatherlink.com 1.10,2013-10-04 06:58:00,
2013-10-04 03:13:00,82.4,78.0,29.81,ESE,118,4.0,9.0,85,0.00,,,0.00,weatherlink.com 1.10,2013-10-04 07:13:00,
2013-10-04 03:28:00,82.5,78.0,29.80,ESE,102,2.0,12.0,85,0.00,,,0.00,weatherlink.com 1.10,2013-10-04 07:28:00,
2013-10-04 03:43:00,82.5,78.0,29.80,SSE,155,2.0,11.0,85,0.00,,,0.00,weatherlink.com 1.10,2013-10-04 07:43:00,
2013-10-04 03:58:00,82.5,77.0,29.80,ESE,103,5.0,11.0,84,0.00,,,0.00,weatherlink.com 1.10,2013-10-04 07:58:00,
2013-10-04 04:13:00,82.4,77.0,29.80,East,96,2.0,8.0,84,0.00,,,0.00,weatherlink.com 1.10,2013-10-04 08:13:00,
2013-10-04 04:28:00,82.4,78.0,29.81,ENE,76,3.0,10.0,85,0.00,,,0.00,weatherlink.com 1.10,2013-10-04 08:28:00,
2013-10-04 04:43:00,82.3,77.0,29.81,East,97,7.0,7.0,84,0.00,,,0.00,weatherlink.com 1.10,2013-10-04 08:43:00,
2013-10-04 04:58:00,82.4,77.0,29.81,East,98,7.0,10.0,84,0.00,,,0.00,weatherlink.com 1.10,2013-10-04 08:58:00,
2013-10-04 05:13:00,82.4,77.0,29.81,ESE,107,3.0,9.0,84,0.00,,,0.00,weatherlink.com 1.10,2013-10-04 09:13:00,
2013-10-04 05:28:00,82.4,77.0,29.81,ESE,107,3.0,9.0,84,0.00,,,0.00,weatherlink.com 1.10,2013-10-04 09:28:00,
2013-10-04 05:43:00,82.6,77.0,29.82,ESE,109,4.0,9.0,84,0.00,,,0.00,weatherlink.com 1.10,2013-10-04 09:43:00,
2013-10-04 05:58:00,82.6,78.0,29.82,East,80,7.0,10.0,85,0.00,,,0.00,weatherlink.com 1.10,2013-10-04 09:58:00,
2013-10-04 06:13:00,80.5,77.0,29.84,ENE,75,4.0,11.0,89,0.09,,,0.09,weatherlink.com 1.10,2013-10-04 10:13:00,
2013-10-04 06:28:00,80.3,78.0,29.84,SE,131,3.0,7.0,92,0.09,,,0.09,weatherlink.com 1.10,2013-10-04 10:28:00,
2013-10-04 06:43:00,80.0,78.0,29.84,ENE,59,5.0,9.0,92,0.09,,,0.09,weatherlink.com 1.10,2013-10-04 10:43:00,
2013-10-04 06:58:00,80.1,78.0,29.84,East,101,5.0,10.0,93,0.09,,,0.09,weatherlink.com 1.10,2013-10-04 10:58:00,
2013-10-04 07:13:00,80.3,78.0,29.85,ESE,102,4.0,9.0,93,0.00,,,0.09,weatherlink.com 1.10,2013-10-04 11:13:00,
2013-10-04 07:28:00,81.2,79.0,29.86,ESE,112,7.0,11.0,93,0.00,,,0.09,weatherlink.com 1.10,2013-10-04 11:28:00,
2013-10-04 07:43:00,82.2,79.0,29.86,East,80,3.0,9.0,91,0.00,,,0.09,weatherlink.com 1.10,2013-10-04 11:43:00,
2013-10-04 07:58:00,83.2,79.0,29.87,ESE,109,3.0,14.0,87,0.00,,,0.09,weatherlink.com 1.10,2013-10-04 11:58:00,
2013-10-04 08:13:00,83.8,79.0,29.87,ESE,111,1.0,15.0,85,0.00,,,0.09,weatherlink.com 1.10,2013-10-04 12:13:00,
2013-10-04 08:43:00,85.9,80.0,29.88,ESE,117,4.0,11.0,81,0.00,,,0.09,weatherlink.com 1.10,2013-10-04 12:43:00,
2013-10-04 08:59:00,86.2,80.0,29.88,SE,142,3.0,16.0,81,0.00,,,0.09,weatherlink.com 1.10,2013-10-04 12:59:00,
2013-10-04 09:14:00,86.9,80.0,29.89,ESE,116,9.0,13.0,79,0.00,,,0.09,weatherlink.com 1.10,2013-10-04 13:14:00,
2013-10-04 09:29:00,87.3,79.0,29.89,East,86,9.0,16.0,77,0.00,,,0.09,weatherlink.com 1.10,2013-10-04 13:29:00,
2013-10-04 09:44:00,87.2,80.0,29.89,ESE,115,10.0,14.0,78,0.00,,,0.09,weatherlink.com 1.10,2013-10-04 13:44:00,
2013-10-04 09:59:00,87.5,80.0,29.89,ESE,106,8.0,16.0,78,0.00,,,0.09,weatherlink.com 1.10,2013-10-04 13:59:00,
2013-10-04 10:14:00,87.9,80.0,29.89,East,88,9.0,14.0,76,0.00,,,0.09,weatherlink.com 1.10,2013-10-04 14:14:00,
2013-10-04 10:29:00,88.4,80.0,29.90,SE,124,11.0,16.0,76,0.00,,,0.09,weatherlink.com 1.10,2013-10-04 14:29:00,
2013-10-04 10:44:00,88.7,80.0,29.89,ESE,117,7.0,14.0,75,0.00,,,0.09,weatherlink.com 1.10,2013-10-04 14:44:00,
2013-10-04 10:59:00,88.9,79.0,29.88,East,97,11.0,15.0,73,0.00,,,0.09,weatherlink.com 1.10,2013-10-04 14:59:00,
2013-10-04 11:14:00,88.6,80.0,29.88,East,93,7.0,13.0,75,0.00,,,0.09,weatherlink.com 1.10,2013-10-04 15:14:00,
2013-10-04 11:29:00,88.8,80.0,29.88,ESE,109,7.0,13.0,74,0.00,,,0.09,weatherlink.com 1.10,2013-10-04 15:29:00,
2013-10-04 11:44:00,88.8,80.0,29.88,East,94,6.0,16.0,74,0.00,,,0.09,weatherlink.com 1.10,2013-10-04 15:44:00,
2013-10-04 11:59:00,88.5,79.0,29.87,SE,136,7.0,12.0,74,0.00,,,0.09,weatherlink.com 1.10,2013-10-04 15:59:00,
2013-10-04 12:14:00,88.3,80.0,29.86,SE,142,2.0,14.0,75,0.00,,,0.09,weatherlink.com 1.10,2013-10-04 16:14:00,
2013-10-04 12:29:00,88.1,80.0,29.85,SE,129,5.0,15.0,76,0.00,,,0.09,weatherlink.com 1.10,2013-10-04 16:29:00,
2013-10-04 12:44:00,87.8,79.0,29.85,SE,140,4.0,15.0,75,0.00,,,0.09,weatherlink.com 1.10,2013-10-04 16:44:00,
2013-10-04 12:59:00,87.4,79.0,29.85,East,90,8.0,13.0,76,0.00,,,0.09,weatherlink.com 1.10,2013-10-04 16:59:00,
2013-10-04 13:14:00,86.8,79.0,29.84,SE,136,6.0,14.0,77,0.00,,,0.09,weatherlink.com 1.10,2013-10-04 17:14:00,
2013-10-04 13:29:00,87.0,79.0,29.84,SE,128,6.0,11.0,78,0.00,,,0.09,weatherlink.com 1.10,2013-10-04 17:29:00,
2013-10-04 13:59:00,87.0,79.0,29.82,ESE,114,4.0,11.0,76,0.00,,,0.09,weatherlink.com 1.10,2013-10-04 17:59:00,
2013-10-04 14:14:00,87.3,79.0,29.82,SE,143,5.0,10.0,75,0.00,,,0.09,weatherlink.com 1.10,2013-10-04 18:14:00,
2013-10-04 14:29:00,87.2,78.0,29.81,ESE,113,3.0,9.0,75,0.00,,,0.09,weatherlink.com 1.10,2013-10-04 18:29:00,
2013-10-04 14:44:00,87.6,79.0,29.80,ESE,120,2.0,11.0,75,0.00,,,0.09,weatherlink.com 1.10,2013-10-04 18:44:00,
2013-10-04 14:59:00,87.6,79.0,29.80,SE,143,3.0,11.0,76,0.00,,,0.09,weatherlink.com 1.10,2013-10-04 18:59:00,
2013-10-04 15:14:00,87.1,79.0,29.80,SE,145,5.0,12.0,76,0.00,,,0.09,weatherlink.com 1.10,2013-10-04 19:14:00,
2013-10-04 15:29:00,87.1,79.0,29.79,SE,132,1.0,9.0,77,0.00,,,0.09,weatherlink.com 1.10,2013-10-04 19:29:00,
2013-10-04 15:44:00,86.8,79.0,29.80,SE,128,5.0,9.0,77,0.00,,,0.09,weatherlink.com 1.10,2013-10-04 19:44:00,
2013-10-04 15:59:00,86.5,79.0,29.80,ESE,119,4.0,8.0,77,0.00,,,0.09,weatherlink.com 1.10,2013-10-04 19:59:00,
2013-10-04 16:14:00,86.5,79.0,29.80,ESE,119,4.0,7.0,77,0.00,,,0.09,weatherlink.com 1.10,2013-10-04 20:14:00,
2013-10-04 16:29:00,86.2,78.0,29.80,ESE,104,5.0,7.0,76,0.00,,,0.09,weatherlink.com 1.10,2013-10-04 20:29:00,
2013-10-04 16:44:00,85.8,78.0,29.79,ESE,111,4.0,8.0,77,0.00,,,0.09,weatherlink.com 1.10,2013-10-04 20:44:00,
2013-10-04 16:59:00,85.6,78.0,29.79,SE,133,2.0,10.0,78,0.00,,,0.09,weatherlink.com 1.10,2013-10-04 20:59:00,
2013-10-04 17:14:00,85.4,78.0,29.80,SSE,166,2.0,8.0,79,0.00,,,0.09,weatherlink.com 1.10,2013-10-04 21:14:00,
2013-10-04 17:29:00,85.0,78.0,29.80,ESE,118,4.0,7.0,80,0.00,,,0.09,weatherlink.com 1.10,2013-10-04 21:29:00,
2013-10-04 17:44:00,84.7,78.0,29.79,ENE,78,2.0,10.0,80,0.00,,,0.09,weatherlink.com 1.10,2013-10-04 21:44:00,
2013-10-04 17:59:00,84.4,78.0,29.80,SE,134,4.0,8.0,82,0.00,,,0.09,weatherlink.com 1.10,2013-10-04 21:59:00,
2013-10-04 18:14:00,84.1,79.0,29.80,SE,130,3.0,9.0,83,0.00,,,0.09,weatherlink.com 1.10,2013-10-04 22:14:00,
2013-10-04 18:29:00,83.8,79.0,29.81,East,94,1.0,7.0,84,0.00,,,0.09,weatherlink.com 1.10,2013-10-04 22:29:00,
2013-10-04 18:44:00,83.6,79.0,29.81,SE,134,1.0,5.0,85,0.00,,,0.09,weatherlink.com 1.10,2013-10-04 22:44:00,
2013-10-04 18:59:00,83.4,79.0,29.82,ESE,120,4.0,7.0,86,0.00,,,0.09,weatherlink.com 1.10,2013-10-04 22:59:00,
2013-10-04 19:14:00,83.3,79.0,29.82,ESE,119,0.0,5.0,86,0.00,,,0.09,weatherlink.com 1.10,2013-10-04 23:14:00,
2013-10-04 19:29:00,83.1,79.0,29.82,ESE,117,1.0,3.0,87,0.00,,,0.09,weatherlink.com 1.10,2013-10-04 23:29:00,
2013-10-04 19:44:00,82.9,79.0,29.83,East,100,1.0,5.0,88,0.00,,,0.09,weatherlink.com 1.10,2013-10-04 23:44:00,
2013-10-04 19:59:00,82.7,79.0,29.83,East,97,1.0,4.0,88,0.00,,,0.09,weatherlink.com 1.10,2013-10-04 23:59:00,
2013-10-04 20:14:00,82.5,79.0,29.83,ESE,105,2.0,5.0,88,0.00,,,0.09,weatherlink.com 1.10,2013-10-05 00:14:00,
2013-10-04 20:29:00,82.4,79.0,29.84,East,101,1.0,6.0,88,0.00,,,0.09,weatherlink.com 1.10,2013-10-05 00:29:00,
2013-10-04 20:44:00,82.4,79.0,29.84,East,91,1.0,5.0,88,0.00,,,0.09,weatherlink.com 1.10,2013-10-05 00:44:00,
2013-10-04 20:59:00,82.5,79.0,29.85,ESE,110,3.0,7.0,88,0.00,,,0.09,weatherlink.com 1.10,2013-10-05 00:59:00,
2013-10-04 21:14:00,82.4,79.0,29.86,East,88,2.0,7.0,88,0.00,,,0.09,weatherlink.com 1.10,2013-10-05 01:14:00,
2013-10-04 21:29:00,82.3,79.0,29.87,ESE,114,5.0,7.0,88,0.00,,,0.09,weatherlink.com 1.10,2013-10-05 01:29:00,
2013-10-04 21:44:00,82.3,79.0,29.88,East,88,6.0,8.0,88,0.00,,,0.09,weatherlink.com 1.10,2013-10-05 01:44:00,
2013-10-04 21:59:00,82.3,79.0,29.89,East,96,2.0,7.0,88,0.00,,,0.09,weatherlink.com 1.10,2013-10-05 01:59:00,
2013-10-04 22:14:00,82.4,79.0,29.89,East,94,1.0,6.0,88,0.00,,,0.09,weatherlink.com 1.10,2013-10-05 02:14:00,
2013-10-04 22:29:00,82.2,78.0,29.89,East,99,1.0,5.0,88,0.00,,,0.09,weatherlink.com 1.10,2013-10-05 02:29:00,
2013-10-04 22:44:00,82.1,78.0,29.89,East,100,3.0,5.0,88,0.00,,,0.09,weatherlink.com 1.10,2013-10-05 02:44:00,
2013-10-04 22:59:00,82.0,78.0,29.89,ESE,104,0.0,7.0,88,0.00,,,0.09,weatherlink.com 1.10,2013-10-05 02:59:00,
2013-10-04 23:14:00,81.9,78.0,29.89,East,95,1.0,3.0,89,0.00,,,0.09,weatherlink.com 1.10,2013-10-05 03:14:00,
2013-10-04 23:29:00,81.9,78.0,29.89,East,81,0.0,5.0,89,0.00,,,0.09,weatherlink.com 1.10,2013-10-05 03:29:00,
2013-10-04 23:44:00,81.9,78.0,29.88,East,92,2.0,5.0,89,0.00,,,0.09,weatherlink.com 1.10,2013-10-05 03:44:00,
2013-10-04 23:59:00,81.9,78.0,29.88,East,97,3.0,7.0,89,0.00,,,0.09,weatherlink.com 1.10,2013-10-05 03:59:00,